Regional Weather Roundup
Issued by NWS

Home | Current Version | Previous Version | Text Only | Print | Product List | Glossary On
Versions: 1 2 3 4 5 6 7 8 9 10 11 12 13 14 15 16 17 18 19 20 21 22 23 24 25 26 27 28 29 30 31 32 33 34 35 36 37 38 39 40 41 42 43 44 45 46 47 48 49 50
000
ASUS43 KIND 071109
RWRIN

WEATHER ROUNDUP FOR INDIANA
NATIONAL WEATHER SERVICE INDIANAPOLIS IN
600 AM EST WED DEC 07 2016

NOTE: "FAIR" INDICATES FEW OR NO CLOUDS BELOW 12,000 FEET WITH NO
SIGNIFICANT WEATHER AND/OR OBSTRUCTIONS TO VISIBILITY.

* - STATION DOES NOT REPORT WEATHER SUCH AS PRECIPITATION OR FOG.

+ - STATION NOT QUALITY CONTROLLED BY THE NATIONAL WEATHER SERVICE.
    USE DATA WITH CAUTION...ESPECIALLY DEWPOINT AND RELATIVE
    HUMIDITY OBSERVATIONS.

INZ001>003-010>013-019-020-071200-
NORTHWEST INDIANA

CITY           SKY/WX    TMP DP  RH WIND       PRES   REMARKS
GARY /AIRPORT/ PTCLDY    28  19  69 W12G23    30.05R WCI  18
KNOX *+        CLOUDY    28   5  37 W13       30.04S WCI  18
LA PORTE +     PTCLDY    28  24  85 SW9       30.04R WCI  19
MICHIGAN CITY+ PTCLDY    28  19  69 SW9       30.04R WCI  20
MONTICELLO +   PTCLDY    28  18  66 W10       30.06R WCI  18
RENSSELAER +     N/A     30  23  74 W10       30.08R WCI  21
VALPARAISO     PTCLDY    27  18  69 W16       30.05R WCI  15

$$

LMZ046-743>745-071200-
SOUTHERN LAKE MICHIGAN

STATION/POSITION TIME  TEMP    WIND        PRES    WAVE
                       AIR SEA DIR/SP/G            HT
                 (UTC) (F)     (DEG/KT/KT) (MB)    (FT)
BURNS HARBOR     1040   30     250/ 19/ 28 1017.6R
MICHIGAN CITY    1040   31     230/ 28/ 32   N/A

$$

INZ004-005-014>016-021>024-071200-
NORTH CENTRAL INDIANA

CITY           SKY/WX    TMP DP  RH WIND       PRES   REMARKS
GOSHEN         PTCLDY    27  18  69 SW14      30.01S WCI  16
LOGANSPORT +   CLEAR     28  19  69 W8        30.06F WCI  20
PERU/GRISSOM   PTCLDY    26  20  76 W7        30.04R WCI  18
ROCHESTER +    PTCLDY    30  25  80 W6        30.05R WCI  24
SOUTH BEND     PTCLDY    25  18  74 SW10      30.02R WCI  15
WARSAW +       PTCLDY    28  18  64 W9        30.03S WCI  20

$$

INZ006>009-017-018-025>027-071200-
NORTHEAST INDIANA

CITY           SKY/WX    TMP DP  RH WIND       PRES   REMARKS
ANGOLA *+      CLEAR     27  21  80 W7        29.98S WCI  19
AUBURN +       CLEAR     28  19  69 SW6       30.02F WCI  22
FORT WAYNE     PTCLDY    27  20  75 W10       30.04F WCI  17
HUNTINGTON +   PTCLDY    25  19  78 W7        30.04S WCI  17
KENDALLVILLE + PTCLDY    26  20  79 W12       30.00S WCI  15

$$

INZ028-029-035-036-043>045-051>053-071200-
WEST CENTRAL INDIANA

CITY           SKY/WX    TMP DP  RH WIND       PRES   REMARKS
CRAWFORDSVL +  PTCLDY    25  21  86 W5        30.09R WCI  19
GREENCASTLE +  PTCLDY    27  27 100 CALM      30.10S
LAFAYETTE      CLEAR     27  20  75 W6        30.09R WCI  20
TERRE HAUTE    PTCLDY    27  22  81 W5        30.13R WCI  22

$$

INZ030>032-037>040-046>048-054>057-064-065-071200-
CENTRAL INDIANA

CITY           SKY/WX    TMP DP  RH WIND       PRES   REMARKS
CP ATTERBURY + PTCLDY    27  23  86 CALM      30.11S
FRANKFORT +    PTCLDY    28  23  81 W5        30.08R WCI  23
GREENWOOD *+   CLEAR     29  24  82 CALM      30.10R
INDIANAPOLIS   PTCLDY    25  20  81 SW6       30.09R WCI  18
-EAGLE CREEK   PTCLDY    28  20  71 SW3       30.08R
KOKOMO +       PTCLDY    26  21  81 W9        30.07R WCI  17
MARION +       PTCLDY    26  22  83 W6        30.06R HAZE    WCI  19
MT COMFORT *+  CLEAR     27  21  80 SW6       30.08R WCI  20
SHELBYVILLE    CLEAR     28  21  75 CALM      30.08R
ZIONSVILLE +   PTCLDY    26  22  83 SW5       30.08R WCI  21

$$

INZ033-034-041-042-049-050-058-059-071200-
EAST CENTRAL INDIANA

CITY           SKY/WX    TMP DP  RH WIND       PRES   REMARKS
MUNCIE         CLEAR     27  20  75 SW6       30.06S WCI  20

$$

INZ060-061-067>069-081>083-085>088-071200-
SOUTHWEST INDIANA

CITY           SKY/WX    TMP DP  RH WIND       PRES   REMARKS
EVANSVILLE     PTCLDY    34  25  69 NW3       30.18R
HUNTINGBURG *+ PTCLDY    32  27  80 NW5       30.15R WCI  27
WASHINGTON +   CLOUDY    32  28  84 CALM      30.15R

$$

INZ062-063-066-070>080-084-089>092-071200-
SOUTH CENTRAL AND SOUTHEAST INDIANA

CITY           SKY/WX    TMP DP  RH WIND       PRES   REMARKS
BLOOMINGTON    CLEAR     25  21  85 CALM      30.10S
MADISON *+     MOCLDY    32  28  86 CALM      30.13R
NORTH VERNON + MOCLDY   N/A N/A N/A CALM      30.11F
SEYMOUR +      MOCLDY    30  27  86 CALM      30.12

$$





USA.gov is the U.S. government's official web portal to all federal, state and local government web resources and services.